CZ-6A DEB, 54301

Orbit data source: Space-Track

CZ-6A DEB, 54301 is space debris in SSO originally from a launch on Fri, 11 Nov 2022 UTC launched from the Taiyaun Space Center, China (TSC). Debris objects in space refer to the collection of defunct objects orbiting the Earth. Examples of debris include non-operational satellites, rocket bodies, and fragments generated from explosions, collisions, or faulty payload assembly.

Loading next visibility...
Identifier
54301, 2022-151AU
Orbit
SSO
Country
Flag of CNCN / PRC
Related business
Manufacturer
SAST
Mission
Spacecraft
Bus & Motor
Unknown
Mass
Unknown
Launch date (UTC)
2022-11-11 (4 years ago)
Launch vehicle
Unknown
Launch site
Taiyaun Space Center, China (TSC)
Object type
Payload
Rocket body
Debris
Shape & HBR
Unknown shape, 0.1 m
Radar Cross Section
Medium (>0.1 m² and <1 m²)

Expand to show TLE details & history
Last TLE update: 3 days ago

TLE from 3 days ago
0 CZ-6A DEB
1 54301U 22151AU  26170.47309257  .00000803  00000-0  46504-3 0  9990
2 54301  98.8917 181.0008 0051370 314.3315  45.3651 14.11089323184707
Epoch: 2026-06-19T11:21Z
TLE epoch observation values (Epoch: 2026-06-19T11:21:15.198Z)
Latitude
0.00003°
Longitude
102.9859°
Altitude
832.527 km
Speed
7.45 km/s
True Right ascension
12h 04m 00s
True Declination
0° 00' 00"
Sunlit
Object was in daylight at epoch
Visualization orbit readout
Latitude
Unknown
Longitude
Unknown
Altitude
Unknown
Speed
Unknown
Apparent Right ascension
Unknown
Apparent Declination
Unknown
Sunlit
N/A
Visualization observer readout
Local Sidereal Time
21:49:30
Azimuth
Unknown
Elevation
Unknown
Doppler factor
Unknown
Orbital elements
Apogee altitude
889.971 km
Perigee altitude
815.68 km
Semi-major axis
7,230.963 km
Eccentricity
0.00514
Inclination
98.8917°
RAAN
181.0008°
Arg. of periapsis
314.3315°
True anomaly
45.78588°
Mean anomaly
45.3651°
Eccentric anomaly
45.5753°
Mean motion
3.52979 °/min
Orbital period
101.99 mins
BSTAR
0.00046504
Loading maneuver chart data...
Computing Atmospheric mass density...
Loading historical data...
Loading historical data...
Loading historical data...
Loading historical data...
Loading historical data...
Loading historical data...
Loading historical data...

Documentation

Showing up to 5 results
|